Regional Weather Roundup
Issued by NWS

Home | Current Version | Previous Version | Graphics & Text | Print | Product List | Glossary On
Versions: 1 2 3 4 5 6 7 8 9 10 11 12 13 14 15 16 17 18 19 20 21 22 23 24 25 26 27 28 29 30 31 32 33 34 35 36 37 38 39 40 41 42 43 44 45 46 47 48 49 50
000
ASUS43 KLMK 131402
RWRKY
KENTUCKY REGIONAL WEATHER ROUNDUP
NATIONAL WEATHER SERVICE LOUISVILLE KY
1000 AM EDT SUN JUL 13 2014

NOTE "FAIR" INDICATES FEW OR NO CLOUDS BELOW 12,000 FEET
WITH NO SIGNIFICANT WEATHER AND/OR OBSTRUCTIONS TO VISIBILITY.

KYZ001>023-026-027-061>063-070>075-131500-
WESTERN AND SOUTH CENTRAL KENTUCKY

CITY           SKY/WX    TMP DP  RH WIND       PRES   REMARKS
PADUCAH        MOSUNNY   84  75  74 SW9       30.05S HX  92
HENDERSON      MOSUNNY   82  73  74 SW7       30.02S
OWENSBORO      SUNNY     83  74  74 SW13      30.04S
HOPKINSVILLE   SUNNY     85  73  67 SW12      30.09F HX  91
BOWLING GREEN  PTSUNNY   84  70  62 SW7       30.09F
GLASGOW        NOT AVBL
$$

KYZ024-025-028>034-038-045-046-053-131500-
NORTH CENTRAL KENTUCKY

CITY           SKY/WX    TMP DP  RH WIND       PRES   REMARKS
LOUISVILLE/SDF CLOUDY    85  71  63 SW13      30.03S HX  90
LOUISVILLE/LOU PTSUNNY   83  71  67 SW10      30.03F
FORT KNOX      PTSUNNY   81  73  76 S10       30.04F
$$

KYZ035>037-039>044-047>052-055>060-089>105-131500-
NORTHEAST KENTUCKY

CITY           SKY/WX    TMP DP  RH WIND       PRES   REMARKS
LEXINGTON      PTSUNNY   82  69  64 SW12      30.08F
COVINGTON      CLOUDY    80  71  74 SW7       30.01F
FRANKFORT      PTSUNNY   80  70  71 SW15      30.05S
$$

KYZ054-064>069-076>088-106>120-131500-
SOUTHEAST KENTUCKY

CITY           SKY/WX    TMP DP  RH WIND       PRES   REMARKS
JACKSON        MOSUNNY   80  68  66 CALM      30.13S
LONDON         PTSUNNY   82  69  64 SW9       30.15S
SOMERSET       PTSUNNY   79  66  65 S6        30.14S
MIDDLESBORO    MOSUNNY   79  71  76 CALM      30.17S
MONTICELLO     SUNNY     83  71  66 SW9       30.15F
$$



USA.gov is the U.S. government's official web portal to all federal, state and local government web resources and services.